BAW4 KJFK-EGLL

Flight info

Callsign BAW4
Flight time N/A
Altitude 25000
Route JFK5 SHIPP C/LEOES/N0770F250F450 DCT LINND 1SO C/3952N06815W/M200F450F600 4200N06000W DCT 4410N05230W 4445N05000W 4704N04000W 4822N03000W 4848N02000W 4848N01500W LULOX/N0531F350 DCT COWJO DCT LAMAT DCT OKESI P2 BEDEK
Aircraft CONC/H-SDFHIRY/C

Departure

Time 2026-05-04 13:49
Airport John F. Kennedy International Airport (KJFK)

Arrival

Time N/A
Airport London Heathrow Airport (EGLL)
Time Latitude Longitude Altitude Speed Heading
2026-05-04 12:39 40.64963 -73.78444 25 ft 0 kts 109°
2026-05-04 13:34 40.64964 -73.78446 24 ft 2 kts 109°
2026-05-04 13:34 40.64970 -73.78463 24 ft 4 kts 73°
2026-05-04 13:34 40.64960 -73.78487 24 ft 4 kts 40°
2026-05-04 13:35 40.64938 -73.78495 24 ft 4 kts 359°
2026-05-04 13:35 40.64922 -73.78495 24 ft 0 kts
2026-05-04 13:38 40.64923 -73.78495 24 ft 1 kts
2026-05-04 13:38 40.64943 -73.78494 24 ft 4 kts
2026-05-04 13:39 40.64984 -73.78494 24 ft 8 kts
2026-05-04 13:39 40.65048 -73.78487 24 ft 11 kts
2026-05-04 13:39 40.65100 -73.78474 24 ft 5 kts 18°
2026-05-04 13:39 40.65123 -73.78461 24 ft 2 kts 23°
2026-05-04 13:40 40.65145 -73.78449 24 ft 4 kts 23°
2026-05-04 13:40 40.65146 -73.78448 24 ft 0 kts 23°
2026-05-04 13:40 40.65149 -73.78447 24 ft 2 kts 23°
2026-05-04 13:40 40.65156 -73.78443 24 ft 0 kts 23°
2026-05-04 13:41 40.65164 -73.78438 24 ft 3 kts 23°
2026-05-04 13:41 40.65192 -73.78422 24 ft 6 kts 23°
2026-05-04 13:41 40.65238 -73.78395 24 ft 8 kts 32°
2026-05-04 13:42 40.65220 -73.78279 24 ft 9 kts 121°
2026-05-04 13:42 40.65184 -73.78199 24 ft 11 kts 121°
2026-05-04 13:42 40.65138 -73.78098 24 ft 15 kts 121°
2026-05-04 13:42 40.65080 -73.77969 24 ft 18 kts 121°
2026-05-04 13:43 40.65016 -73.77828 24 ft 15 kts 121°
2026-05-04 13:43 40.64956 -73.77696 24 ft 18 kts 121°
2026-05-04 13:43 40.64887 -73.77544 25 ft 18 kts 121°
2026-05-04 13:43 40.64838 -73.77438 24 ft 11 kts 121°
2026-05-04 13:44 40.64793 -73.77337 24 ft 14 kts 121°
2026-05-04 13:44 40.64750 -73.77239 24 ft 7 kts 108°
2026-05-04 13:44 40.64770 -73.77174 24 ft 8 kts 55°
2026-05-04 13:44 40.64779 -73.77111 24 ft 8 kts 108°
2026-05-04 13:45 40.64746 -73.77033 24 ft 11 kts 121°
2026-05-04 13:45 40.64700 -73.76930 24 ft 14 kts 121°
2026-05-04 13:45 40.64686 -73.76858 24 ft 7 kts 56°
2026-05-04 13:45 40.64735 -73.76812 24 ft 10 kts 31°
2026-05-04 13:46 40.64807 -73.76757 24 ft 14 kts 30°
2026-05-04 13:46 40.64897 -73.76687 24 ft 17 kts 30°
2026-05-04 13:46 40.65007 -73.76601 24 ft 20 kts 31°
2026-05-04 13:46 40.65087 -73.76538 25 ft 9 kts 33°
2026-05-04 13:47 40.65098 -73.76483 24 ft 7 kts 102°
2026-05-04 13:47 40.65070 -73.76410 24 ft 11 kts 121°
2026-05-04 13:47 40.65038 -73.76350 25 ft 3 kts 154°
2026-05-04 13:47 40.65025 -73.76355 24 ft 0 kts 211°
2026-05-04 13:48 40.65020 -73.76359 24 ft 9 kts 211°
2026-05-04 13:48 40.64721 -73.76593 24 ft 91 kts 210°
2026-05-04 13:48 40.63950 -73.77195 24 ft 165 kts 211°
2026-05-04 13:48 40.62773 -73.78110 45 ft 222 kts 212°
2026-05-04 13:49 40.61378 -73.79216 491 ft 244 kts 212°
2026-05-04 13:49 40.59868 -73.80422 1028 ft 257 kts 213°
2026-05-04 13:49 40.58341 -73.81657 1370 ft 258 kts 213°
2026-05-04 13:49 40.56835 -73.82889 1734 ft 255 kts 214°
2026-05-04 13:50 40.55371 -73.84096 2394 ft 242 kts 215°
2026-05-04 13:50 40.53964 -73.85266 2854 ft 237 kts 216°
2026-05-04 13:50 40.52533 -73.86317 3253 ft 239 kts 202°
2026-05-04 13:50 40.50909 -73.86899 3923 ft 246 kts 198°
2026-05-04 13:51 40.49210 -73.87418 4668 ft 256 kts 198°
2026-05-04 13:51 40.47435 -73.87926 5492 ft 268 kts 190°
2026-05-04 13:51 40.45509 -73.87881 6434 ft 290 kts 172°
2026-05-04 13:51 40.43511 -73.86993 7503 ft 318 kts 155°
2026-05-04 13:52 40.40129 -73.82861 10016 ft 352 kts 123°
2026-05-04 13:52 40.39061 -73.79917 11017 ft 372 kts 108°
2026-05-04 13:52 40.38429 -73.76560 11925 ft 386 kts 104°
2026-05-04 13:53 40.37970 -73.73052 12801 ft 395 kts 96°
2026-05-04 13:53 40.37763 -73.69382 13333 ft 414 kts 95°
2026-05-04 13:53 40.37503 -73.65489 13462 ft 440 kts 97°
2026-05-04 13:54 40.36670 -73.57298 14500 ft 458 kts 99°
2026-05-04 13:54 40.36199 -73.53144 15212 ft 463 kts 99°
2026-05-04 13:54 40.35224 -73.44701 16636 ft 474 kts 98°
2026-05-04 13:55 40.34731 -73.40404 17328 ft 479 kts 98°
2026-05-04 13:55 40.33767 -73.31702 18690 ft 489 kts 98°
2026-05-04 13:55 40.33197 -73.27275 19327 ft 495 kts 107°
2026-05-04 13:56 40.31827 -73.23149 19869 ft 496 kts 125°
2026-05-04 13:56 40.29850 -73.19426 20464 ft 499 kts 128°
2026-05-04 13:56 40.25677 -73.12056 21746 ft 508 kts 129°
2026-05-04 13:57 40.23543 -73.08398 22447 ft 512 kts 130°
2026-05-04 13:57 40.21353 -73.04688 23168 ft 517 kts 130°
2026-05-04 13:58 40.14379 -72.93001 24321 ft 567 kts 130°
2026-05-04 13:58 40.09493 -72.84730 25049 ft 583 kts 130°
2026-05-04 13:58 40.07017 -72.80523 25048 ft 584 kts 130°
2026-05-04 13:59 40.04570 -72.76374 25045 ft 584 kts 130°
2026-05-04 13:59 40.02086 -72.72181 25043 ft 584 kts 130°
2026-05-04 13:59 39.97095 -72.63807 25230 ft 587 kts 131°
2026-05-04 14:00 39.94561 -72.59580 25446 ft 596 kts 131°
2026-05-04 14:00 39.89429 -72.51001 26735 ft 604 kts 131°
2026-05-04 14:00 39.86843 -72.46662 27249 ft 608 kts 131°
2026-05-04 14:01 39.84243 -72.42308 27639 ft 611 kts 131°
2026-05-04 14:01 39.81621 -72.37935 27969 ft 614 kts 131°
2026-05-04 14:01 39.76330 -72.29144 28792 ft 620 kts 132°
2026-05-04 14:02 39.73697 -72.24783 29166 ft 624 kts 132°
2026-05-04 14:02 39.71004 -72.20327 29469 ft 627 kts 132°
2026-05-04 14:02 39.68305 -72.15855 29774 ft 630 kts 132°
2026-05-04 14:02 39.65605 -72.11371 30049 ft 632 kts 132°
2026-05-04 14:03 39.62877 -72.06851 30318 ft 635 kts 132°
2026-05-04 14:03 39.60137 -72.02331 30594 ft 638 kts 132°
2026-05-04 14:03 39.57385 -71.97804 30880 ft 641 kts 133°
2026-05-04 14:03 39.54613 -71.93256 31163 ft 644 kts 133°
2026-05-04 14:04 39.49071 -71.84035 31793 ft 654 kts 128°
2026-05-04 14:04 39.46789 -71.78952 32090 ft 666 kts 118°
2026-05-04 14:04 39.45086 -71.73311 32310 ft 680 kts 109°
2026-05-04 14:05 39.43735 -71.60997 32933 ft 707 kts 90°
2026-05-04 14:05 39.44003 -71.54586 33378 ft 721 kts 86°
2026-05-04 14:05 39.44546 -71.48062 33836 ft 736 kts 84°
2026-05-04 14:06 39.45247 -71.41430 34291 ft 750 kts 82°
2026-05-04 14:06 39.46094 -71.34694 34746 ft 764 kts 81°
2026-05-04 14:06 39.47034 -71.27957 35162 ft 777 kts 80°
2026-05-04 14:06 39.48053 -71.21027 35568 ft 790 kts 80°
2026-05-04 14:07 39.49115 -71.13983 35952 ft 803 kts 80°
2026-05-04 14:07 39.50205 -71.06843 36342 ft 814 kts 80°
2026-05-04 14:07 39.51311 -70.99595 36702 ft 826 kts 80°
2026-05-04 14:07 39.52418 -70.92234 37072 ft 838 kts 80°
2026-05-04 14:08 39.53510 -70.84755 37460 ft 850 kts 81°
2026-05-04 14:08 39.54588 -70.77162 37843 ft 863 kts 81°
2026-05-04 14:08 39.55657 -70.69450 38246 ft 876 kts 81°
2026-05-04 14:08 39.56729 -70.61596 38658 ft 889 kts 81°
2026-05-04 14:09 39.58881 -70.45558 39486 ft 917 kts 81°
2026-05-04 14:09 39.59960 -70.37445 39883 ft 932 kts 81°
2026-05-04 14:10 39.62190 -70.20618 40656 ft 960 kts 81°
2026-05-04 14:10 39.63330 -70.12026 41018 ft 974 kts 81°
2026-05-04 14:10 39.64492 -70.03305 41356 ft 988 kts 81°
2026-05-04 14:10 39.65675 -69.94442 41683 ft 1001 kts 81°
2026-05-04 14:11 39.66868 -69.85460 41994 ft 1015 kts 81°
2026-05-04 14:11 39.69270 -69.67183 42603 ft 1039 kts 81°
2026-05-04 14:11 39.70478 -69.57857 42856 ft 1052 kts 81°
2026-05-04 14:12 39.71670 -69.48571 43136 ft 1061 kts 81°
2026-05-04 14:12 39.72874 -69.39098 43382 ft 1066 kts 81°
2026-05-04 14:12 39.75273 -69.19974 43816 ft 1077 kts 81°
2026-05-04 14:13 39.76469 -69.10342 44020 ft 1080 kts 82°
2026-05-04 14:13 39.77662 -69.00675 44205 ft 1084 kts 82°
2026-05-04 14:13 39.78851 -68.90982 44387 ft 1087 kts 82°
2026-05-04 14:13 39.80043 -68.81249 44553 ft 1091 kts 82°
2026-05-04 14:14 39.81241 -68.71501 44712 ft 1094 kts 82°
2026-05-04 14:14 39.83640 -68.51912 45004 ft 1098 kts 82°
2026-05-04 14:14 39.84815 -68.42081 45142 ft 1101 kts 82°
2026-05-04 14:15 39.87078 -68.22455 45399 ft 1105 kts 82°
2026-05-04 14:15 39.89286 -68.02595 45647 ft 1109 kts 82°
2026-05-04 14:16 39.91443 -67.82686 45878 ft 1112 kts 83°
2026-05-04 14:16 39.92509 -67.72704 45988 ft 1114 kts 83°
2026-05-04 14:17 39.95292 -67.52798 46148 ft 1118 kts 77°
2026-05-04 14:17 39.97109 -67.42941 46228 ft 1120 kts 76°
2026-05-04 14:17 40.01174 -67.23282 46535 ft 1124 kts 74°
2026-05-04 14:18 40.03324 -67.13596 46677 ft 1126 kts 73°
2026-05-04 14:18 40.07889 -66.93996 46941 ft 1131 kts 73°
2026-05-04 14:19 40.12691 -66.74387 47199 ft 1135 kts 72°
2026-05-04 14:19 40.15166 -66.64570 47329 ft 1138 kts 72°
2026-05-04 14:19 40.16832 -66.58062 47413 ft 1139 kts 71°
2026-05-04 14:19 40.19381 -66.48233 47537 ft 1142 kts 71°
2026-05-04 14:20 40.22828 -66.35181 47699 ft 1145 kts 71°
2026-05-04 14:20 40.25475 -66.25329 47824 ft 1147 kts 70°
2026-05-04 14:20 40.27283 -66.18679 47906 ft 1148 kts 70°
2026-05-04 14:21 40.32719 -65.99058 48147 ft 1153 kts 70°
2026-05-04 14:21 40.35507 -65.89211 48263 ft 1155 kts 69°
2026-05-04 14:21 40.38347 -65.79343 48382 ft 1157 kts 69°
2026-05-04 14:21 40.41255 -65.69483 48503 ft 1159 kts 69°
2026-05-04 14:22 40.44242 -65.59608 48619 ft 1161 kts 68°
2026-05-04 14:22 40.47269 -65.49783 48738 ft 1163 kts 68°
2026-05-04 14:22 40.50340 -65.39937 48850 ft 1165 kts 68°
2026-05-04 14:22 40.53439 -65.30066 48963 ft 1166 kts 68°
2026-05-04 14:23 40.59605 -65.10446 49142 ft 1169 kts 68°
2026-05-04 14:23 40.62691 -65.00517 49226 ft 1170 kts 68°
2026-05-04 14:24 40.68778 -64.80594 49370 ft 1173 kts 69°
2026-05-04 14:24 40.74779 -64.60544 49500 ft 1175 kts 69°
2026-05-04 14:25 40.80714 -64.40410 49608 ft 1177 kts 69°
2026-05-04 14:25 40.89540 -64.10088 49737 ft 1180 kts 69°
2026-05-04 14:26 40.95392 -63.89821 49810 ft 1181 kts 69°
2026-05-04 14:26 41.01197 -63.69638 49867 ft 1181 kts 69°
2026-05-04 14:27 41.07030 -63.49271 49907 ft 1182 kts 70°
2026-05-04 14:27 41.12853 -63.28835 49935 ft 1183 kts 70°
2026-05-04 14:28 41.18640 -63.08372 49959 ft 1184 kts 70°
2026-05-04 14:28 41.24387 -62.87872 49984 ft 1184 kts 70°
2026-05-04 14:29 41.35760 -62.46732 50011 ft 1185 kts 70°
2026-05-04 14:30 41.41357 -62.26204 50014 ft 1185 kts 71°
2026-05-04 14:31 41.49727 -61.95184 50015 ft 1185 kts 71°
2026-05-04 14:32 41.60765 -61.53691 50029 ft 1184 kts 71°
2026-05-04 14:32 41.66228 -61.32905 50051 ft 1184 kts 71°
2026-05-04 14:33 41.71651 -61.12093 50083 ft 1184 kts 71°
2026-05-04 14:33 41.76998 -60.91392 50131 ft 1184 kts 71°
2026-05-04 14:34 41.82351 -60.70536 50180 ft 1183 kts 71°
2026-05-04 14:34 41.87734 -60.49653 50209 ft 1183 kts 71°
2026-05-04 14:35 41.93198 -60.28776 50258 ft 1184 kts 71°
2026-05-04 14:35 41.98778 -60.07945 50308 ft 1183 kts 70°
2026-05-04 14:36 42.04503 -59.87189 50350 ft 1183 kts 70°
2026-05-04 14:36 42.10409 -59.66503 50379 ft 1183 kts 69°
2026-05-04 14:37 42.16541 -59.46080 50401 ft 1184 kts 68°
2026-05-04 14:37 42.22962 -59.25468 50429 ft 1184 kts 68°
2026-05-04 14:38 42.29383 -59.05138 50455 ft 1185 kts 68°
2026-05-04 14:38 42.35835 -58.84585 50488 ft 1185 kts 68°
2026-05-04 14:39 42.42126 -58.64059 50526 ft 1186 kts 68°
2026-05-04 14:39 42.48329 -58.43369 50567 ft 1186 kts 69°
2026-05-04 14:40 42.57496 -58.12181 50641 ft 1185 kts 69°
2026-05-04 14:40 42.63538 -57.91357 50683 ft 1185 kts 69°
2026-05-04 14:41 42.69555 -57.70480 50727 ft 1185 kts 69°
2026-05-04 14:42 42.81520 -57.28693 50794 ft 1183 kts 69°
2026-05-04 14:42 42.87460 -57.07796 50823 ft 1182 kts 69°
2026-05-04 14:43 42.93325 -56.87015 50850 ft 1181 kts 70°
2026-05-04 14:43 42.99187 -56.66056 50877 ft 1180 kts 70°
2026-05-04 14:44 43.04999 -56.45073 50904 ft 1179 kts 70°
2026-05-04 14:44 43.10759 -56.24069 50925 ft 1179 kts 70°
2026-05-04 14:45 43.16475 -56.03026 50942 ft 1178 kts 70°
2026-05-04 14:45 43.22109 -55.82093 50946 ft 1176 kts 70°
2026-05-04 14:46 43.27735 -55.61012 50946 ft 1176 kts 70°
2026-05-04 14:46 43.33318 -55.39915 50955 ft 1176 kts 71°
2026-05-04 14:47 43.38870 -55.18755 50972 ft 1175 kts 71°
2026-05-04 14:47 43.44383 -54.97565 50996 ft 1175 kts 71°
2026-05-04 14:48 43.49822 -54.76471 51024 ft 1176 kts 71°
2026-05-04 14:48 43.55253 -54.55220 51066 ft 1175 kts 71°
2026-05-04 14:49 43.60647 -54.33917 51102 ft 1175 kts 71°
2026-05-04 14:49 43.65998 -54.12586 51136 ft 1175 kts 71°
2026-05-04 14:50 43.71305 -53.91229 51176 ft 1175 kts 71°
2026-05-04 14:50 43.76541 -53.69964 51213 ft 1174 kts 72°
2026-05-04 14:51 43.81764 -53.48550 51254 ft 1174 kts 72°
2026-05-04 14:51 43.86943 -53.27112 51294 ft 1173 kts 72°
2026-05-04 14:52 43.92087 -53.05627 51338 ft 1172 kts 72°
2026-05-04 14:52 43.97188 -52.84148 51386 ft 1172 kts 72°
2026-05-04 14:53 44.02297 -52.62664 51447 ft 1171 kts 72°
2026-05-04 14:53 44.07482 -52.41153 51515 ft 1170 kts 71°
2026-05-04 14:54 44.12762 -52.19743 51573 ft 1170 kts 71°
2026-05-04 14:54 44.18159 -51.98504 51625 ft 1169 kts 70°
2026-05-04 14:55 44.23763 -51.77203 51675 ft 1169 kts 69°
2026-05-04 14:55 44.29597 -51.56015 51727 ft 1168 kts 68°
2026-05-04 14:56 44.35724 -51.34975 51769 ft 1168 kts 68°
2026-05-04 14:56 44.41997 -51.14053 51816 ft 1166 kts 67°
2026-05-04 14:57 44.48278 -50.93251 51858 ft 1165 kts 68°
2026-05-04 14:57 44.54387 -50.72230 51898 ft 1165 kts 68°
2026-05-04 14:58 44.60348 -50.51105 51942 ft 1164 kts 69°
2026-05-04 14:58 44.65270 -50.33530 51975 ft 1163 kts 68°
2026-05-04 14:59 44.72286 -50.08820 52021 ft 1163 kts 68°
2026-05-04 15:00 44.81418 -49.77217 52086 ft 1162 kts 68°
2026-05-04 15:00 44.87513 -49.56133 52120 ft 1161 kts 68°
2026-05-04 15:01 44.96431 -49.24516 52169 ft 1160 kts 69°
2026-05-04 15:01 45.02285 -49.03267 52203 ft 1160 kts 69°
2026-05-04 15:02 45.08079 -48.81959 52234 ft 1159 kts 69°
2026-05-04 15:02 45.13825 -48.60645 52266 ft 1159 kts 69°
2026-05-04 15:03 45.19549 -48.39294 52299 ft 1158 kts 69°
2026-05-04 15:03 45.25224 -48.18047 52334 ft 1158 kts 69°
2026-05-04 15:04 45.30906 -47.96641 52372 ft 1158 kts 69°
2026-05-04 15:04 45.36543 -47.75207 52409 ft 1157 kts 69°
2026-05-04 15:05 45.42128 -47.53731 52445 ft 1157 kts 70°
2026-05-04 15:05 45.47666 -47.32202 52486 ft 1156 kts 70°
2026-05-04 15:06 45.53156 -47.10644 52522 ft 1156 kts 70°
2026-05-04 15:07 45.60410 -46.81851 52571 ft 1156 kts 70°
2026-05-04 15:07 45.65808 -46.60205 52605 ft 1155 kts 70°
2026-05-04 15:08 45.71159 -46.38553 52640 ft 1155 kts 70°
2026-05-04 15:08 45.76436 -46.17004 52671 ft 1154 kts 71°
2026-05-04 15:09 45.81717 -45.95227 52701 ft 1154 kts 71°
2026-05-04 15:09 45.86956 -45.73405 52733 ft 1154 kts 71°
2026-05-04 15:10 45.94720 -45.40653 52762 ft 1157 kts 71°
2026-05-04 15:11 46.02369 -45.07901 52815 ft 1156 kts 71°
2026-05-04 15:11 46.07439 -44.85920 52850 ft 1155 kts 72°
2026-05-04 15:12 46.12464 -44.63912 52886 ft 1155 kts 72°
2026-05-04 15:12 46.17421 -44.41979 52922 ft 1155 kts 72°
2026-05-04 15:13 46.22360 -44.19897 52959 ft 1155 kts 72°
2026-05-04 15:13 46.27259 -43.97767 52995 ft 1154 kts 72°
2026-05-04 15:14 46.32108 -43.75628 53033 ft 1154 kts 72°
2026-05-04 15:14 46.36908 -43.53476 53073 ft 1154 kts 72°
2026-05-04 15:15 46.41670 -43.31267 53115 ft 1153 kts 73°
2026-05-04 15:15 46.46352 -43.09194 53157 ft 1152 kts 73°
2026-05-04 15:16 46.53337 -42.75811 53217 ft 1151 kts 73°
2026-05-04 15:17 46.60222 -42.42348 53278 ft 1151 kts 73°
2026-05-04 15:17 46.67006 -42.08827 53342 ft 1150 kts 73°
2026-05-04 15:18 46.71472 -41.86443 53383 ft 1150 kts 74°
2026-05-04 15:19 46.78062 -41.52929 53441 ft 1150 kts 74°
2026-05-04 15:19 46.84574 -41.19237 53498 ft 1149 kts 74°
2026-05-04 15:20 46.88860 -40.96734 53535 ft 1149 kts 74°
2026-05-04 15:20 46.93116 -40.74184 53571 ft 1149 kts 75°
2026-05-04 15:21 46.97332 -40.51638 53607 ft 1149 kts 75°
2026-05-04 15:22 47.03538 -40.17718 53660 ft 1149 kts 75°
2026-05-04 15:22 47.09578 -39.83667 53716 ft 1149 kts 75°
2026-05-04 15:23 47.13520 -39.61118 53754 ft 1148 kts 75°
2026-05-04 15:23 47.17456 -39.38359 53790 ft 1148 kts 76°
2026-05-04 15:24 47.25187 -38.92749 53866 ft 1148 kts 76°
2026-05-04 15:25 47.28977 -38.69914 53905 ft 1147 kts 76°
2026-05-04 15:26 47.34547 -38.35754 53957 ft 1148 kts 76°
2026-05-04 15:26 47.40046 -38.01339 54006 ft 1148 kts 76°
2026-05-04 15:27 47.45448 -37.66827 54055 ft 1148 kts 77°
2026-05-04 15:28 47.50720 -37.32429 54105 ft 1148 kts 77°
2026-05-04 15:29 47.55908 -36.97826 54153 ft 1147 kts 77°
2026-05-04 15:30 47.67586 -36.16962 54265 ft 1150 kts 78°
2026-05-04 15:31 47.72439 -35.82037 54361 ft 1150 kts 78°
2026-05-04 15:32 47.80290 -35.23691 54493 ft 1150 kts 78°
2026-05-04 15:34 47.87811 -34.65436 54612 ft 1148 kts 79°
2026-05-04 15:34 47.92197 -34.30274 54676 ft 1148 kts 79°
2026-05-04 15:35 47.96468 -33.95120 54734 ft 1148 kts 79°
2026-05-04 15:36 48.00612 -33.60073 54788 ft 1147 kts 80°
2026-05-04 15:36 48.03329 -33.36563 54821 ft 1148 kts 80°
2026-05-04 15:37 48.05996 -33.13048 54849 ft 1148 kts 80°
2026-05-04 15:37 48.08617 -32.89488 54881 ft 1148 kts 80°
2026-05-04 15:38 48.11189 -32.65910 54910 ft 1148 kts 81°
2026-05-04 15:38 48.13700 -32.42430 54936 ft 1148 kts 81°
2026-05-04 15:39 48.16176 -32.18808 54959 ft 1149 kts 81°
2026-05-04 15:40 48.19815 -31.83157 54996 ft 1149 kts 81°
2026-05-04 15:40 48.22158 -31.59585 55022 ft 1149 kts 81°
2026-05-04 15:41 48.24465 -31.35867 55050 ft 1149 kts 81°
2026-05-04 15:41 48.26725 -31.12108 55081 ft 1148 kts 82°
2026-05-04 15:42 48.28861 -30.88337 55118 ft 1148 kts 82°
2026-05-04 15:42 48.30853 -30.64551 55159 ft 1148 kts 83°
2026-05-04 15:43 48.32846 -30.40865 55201 ft 1148 kts 82°
2026-05-04 15:43 48.34940 -30.17099 55241 ft 1147 kts 82°
2026-05-04 15:44 48.37106 -29.93288 55280 ft 1147 kts 82°
2026-05-04 15:44 48.39293 -29.69500 55317 ft 1147 kts 82°
2026-05-04 15:45 48.41391 -29.45846 55352 ft 1147 kts 82°
2026-05-04 15:45 48.43369 -29.22007 55388 ft 1147 kts 83°
2026-05-04 15:46 48.45239 -28.98146 55424 ft 1148 kts 83°
2026-05-04 15:46 48.47036 -28.74230 55458 ft 1148 kts 83°
2026-05-04 15:47 48.48781 -28.50325 55492 ft 1148 kts 83°
2026-05-04 15:47 48.50498 -28.26382 55525 ft 1148 kts 83°
2026-05-04 15:48 48.52193 -28.02426 55558 ft 1149 kts 84°
2026-05-04 15:48 48.54668 -27.66563 55603 ft 1149 kts 84°
2026-05-04 15:49 48.56255 -27.42560 55629 ft 1149 kts 84°
2026-05-04 15:49 48.57783 -27.18518 55652 ft 1149 kts 84°
2026-05-04 15:50 48.59251 -26.94495 55670 ft 1149 kts 84°
2026-05-04 15:50 48.60670 -26.70399 55684 ft 1149 kts 85°
2026-05-04 15:51 48.62030 -26.46460 55700 ft 1149 kts 85°
2026-05-04 15:51 48.63352 -26.22382 55714 ft 1149 kts 85°
2026-05-04 15:52 48.64627 -25.98285 55732 ft 1150 kts 85°
2026-05-04 15:52 48.65854 -25.74144 55751 ft 1150 kts 85°
2026-05-04 15:53 48.67030 -25.50011 55770 ft 1150 kts 85°
2026-05-04 15:53 48.68152 -25.25886 55788 ft 1150 kts 86°
2026-05-04 15:54 48.69219 -25.01865 55804 ft 1150 kts 86°
2026-05-04 15:54 48.70242 -24.77663 55810 ft 1150 kts 86°
2026-05-04 15:55 48.71213 -24.53472 55820 ft 1150 kts 86°
2026-05-04 15:55 48.71982 -24.33367 55830 ft 1150 kts 86°
2026-05-04 15:56 48.73000 -24.05219 55845 ft 1150 kts 86°
2026-05-04 15:56 48.73691 -23.84957 55857 ft 1150 kts 87°
2026-05-04 15:57 48.74465 -23.60875 55873 ft 1150 kts 87°
2026-05-04 15:57 48.75192 -23.36655 55890 ft 1150 kts 87°
2026-05-04 15:58 48.75869 -23.12430 55908 ft 1150 kts 87°
2026-05-04 15:58 48.76494 -22.88203 55929 ft 1150 kts 88°
2026-05-04 15:59 48.77070 -22.63945 55952 ft 1150 kts 88°
2026-05-04 15:59 48.77592 -22.39798 55974 ft 1150 kts 88°
2026-05-04 16:00 48.78066 -22.15510 55998 ft 1150 kts 88°
2026-05-04 16:00 48.78489 -21.91225 56024 ft 1150 kts 88°
2026-05-04 16:01 48.78860 -21.66987 56050 ft 1150 kts 89°
2026-05-04 16:01 48.79179 -21.42867 56077 ft 1149 kts 89°
2026-05-04 16:02 48.79448 -21.18618 56106 ft 1149 kts 89°
2026-05-04 16:03 48.79783 -20.82235 56151 ft 1149 kts 89°
2026-05-04 16:03 48.79974 -20.58093 56183 ft 1149 kts 89°
2026-05-04 16:04 48.80112 -20.33808 56218 ft 1149 kts 89°
2026-05-04 16:04 48.80088 -19.97406 56266 ft 1149 kts 90°
2026-05-04 16:05 48.79926 -19.73187 56298 ft 1149 kts 90°
2026-05-04 16:06 48.79560 -19.37019 56343 ft 1148 kts 91°
2026-05-04 16:07 48.78919 -18.88563 56402 ft 1148 kts 91°
2026-05-04 16:08 48.78129 -18.40265 56462 ft 1148 kts 91°
2026-05-04 16:09 48.76840 -17.79745 56535 ft 1147 kts 92°
2026-05-04 16:10 48.75572 -17.31565 56588 ft 1147 kts 92°
2026-05-04 16:11 48.74102 -16.83214 56642 ft 1148 kts 92°
2026-05-04 16:12 48.71531 -16.10904 56731 ft 1147 kts 93°
2026-05-04 16:13 48.73855 -15.62859 56685 ft 1147 kts 79°
2026-05-04 16:14 48.80710 -15.15573 56773 ft 1149 kts 76°
2026-05-04 16:16 48.90866 -14.56998 56873 ft 1149 kts 74°
2026-05-04 16:17 49.01956 -13.98686 56956 ft 1149 kts 73°
2026-05-04 16:18 49.11366 -13.52063 57013 ft 1149 kts 72°
2026-05-04 16:19 49.23719 -12.94119 57080 ft 1149 kts 71°
2026-05-04 16:20 49.36923 -12.36262 57149 ft 1150 kts 70°
2026-05-04 16:22 49.51241 -11.79006 57223 ft 1150 kts 69°
2026-05-04 16:23 49.68285 -11.09781 57315 ft 1150 kts 70°
2026-05-04 16:25 49.84451 -10.40080 57392 ft 1149 kts 70°
2026-05-04 16:26 50.02971 -9.58195 57465 ft 1148 kts 71°
2026-05-04 16:28 50.15835 -8.99310 57502 ft 1149 kts 72°
2026-05-04 16:29 50.32714 -8.17141 57507 ft 1076 kts 72°
2026-05-04 16:30 50.39706 -7.85173 57505 ft 993 kts 70°
2026-05-04 16:31 50.44249 -7.65343 57503 ft 937 kts 70°
2026-05-04 16:31 50.50638 -7.37599 56280 ft 871 kts 70°
2026-05-04 16:32 50.56435 -7.11358 53234 ft 823 kts 71°
2026-05-04 16:33 50.60014 -6.94594 51141 ft 792 kts 71°
2026-05-04 16:33 50.63400 -6.78528 49142 ft 764 kts 71°
2026-05-04 16:34 50.66690 -6.62900 47287 ft 737 kts 71°
2026-05-04 16:34 50.68302 -6.55295 46420 ft 724 kts 71°
2026-05-04 16:35 50.72963 -6.33235 43960 ft 689 kts 72°
2026-05-04 16:35 50.77324 -6.12185 41759 ft 657 kts 72°
2026-05-04 16:36 50.78727 -6.05353 41076 ft 647 kts 72°
2026-05-04 16:36 50.81443 -5.92102 39743 ft 627 kts 72°
2026-05-04 16:37 50.84072 -5.79224 38244 ft 599 kts 72°
2026-05-04 16:37 50.85326 -5.73059 37567 ft 576 kts 72°
2026-05-04 16:37 50.87672 -5.61418 36622 ft 543 kts 73°
2026-05-04 16:38 50.89953 -5.50043 35708 ft 540 kts 73°
2026-05-04 16:39 50.93343 -5.33031 35030 ft 541 kts 73°
2026-05-04 16:39 50.95567 -5.21815 35030 ft 533 kts 73°
2026-05-04 16:40 50.99986 -4.99264 35017 ft 535 kts 73°
2026-05-04 16:41 51.05473 -4.70919 35013 ft 537 kts 73°
2026-05-04 16:43 51.10885 -4.42534 35007 ft 538 kts 74°
2026-05-04 16:43 51.13761 -4.27260 35008 ft 538 kts 74°
2026-05-04 16:45 51.20136 -3.93006 35011 ft 541 kts 74°
2026-05-04 16:46 51.24221 -3.63689 35017 ft 541 kts 82°
2026-05-04 16:47 51.26479 -3.39963 35022 ft 542 kts 82°
2026-05-04 16:48 51.28799 -3.16105 35022 ft 543 kts 82°
2026-05-04 16:49 51.31525 -2.92300 35021 ft 545 kts 78°
2026-05-04 16:50 51.35144 -2.68802 34935 ft 547 kts 77°
2026-05-04 16:51 51.36960 -2.56982 33955 ft 546 kts 77°
2026-05-04 16:51 51.37837 -2.51077 33425 ft 546 kts 78°
2026-05-04 16:51 51.39562 -2.39207 32363 ft 548 kts 78°
2026-05-04 16:52 51.41275 -2.27365 30974 ft 539 kts 78°
2026-05-04 16:52 51.42126 -2.21562 30048 ft 533 kts 78°
2026-05-04 16:53 51.43736 -2.10110 28205 ft 520 kts 85°
2026-05-04 16:53 51.42351 -1.93463 25539 ft 495 kts 103°
2026-05-04 16:54 51.41658 -1.88103 24676 ft 488 kts 104°
2026-05-04 16:55 51.38738 -1.67262 21300 ft 468 kts 105°
2026-05-04 16:55 51.37233 -1.57302 19661 ft 458 kts 105°
2026-05-04 16:56 51.35757 -1.47470 18491 ft 451 kts 104°
2026-05-04 16:56 51.33671 -1.32964 16776 ft 441 kts 104°
2026-05-04 16:57 51.32984 -1.28215 16081 ft 436 kts 104°
2026-05-04 16:57 51.31629 -1.18889 14572 ft 426 kts 102°
2026-05-04 16:58 51.31108 -1.04917 12322 ft 413 kts 91°
2026-05-04 16:58 51.31092 -1.00354 11725 ft 408 kts 91°
2026-05-04 16:59 51.31079 -0.91403 10571 ft 402 kts 91°
2026-05-04 17:00 51.30896 -0.73627 10018 ft 398 kts 92°
2026-05-04 17:00 51.30749 -0.61645 9610 ft 321 kts 91°
2026-05-04 17:01 51.30663 -0.54820 8306 ft 299 kts 91°